Location: ?
(35.4064°N, 139.3593°E)
Time: 13:55:35
(UTC+00:00)

Cosmos 1980 Rocket - Visible Passes

Search period start: 12 July 2024 00:00
Search period end: 22 July 2024 00:00
Orbit: 828 x 850 km, 71.0° (Epoch: 11 July)

Date Brightness Start Highest point End Pass type
(mag) Time Alt. Az. Time Alt. Az. Time Alt. Az.
12 Jul 4.2 18:00:30 10° SSE 18:04:50 23° E 18:09:10 10° NE visible
13 Jul 4.3 17:44:50 10° SSE 17:48:58 21° E 17:53:07 10° NE visible
14 Jul 4.4 17:29:10 10° SE 17:33:06 19° E 17:37:03 10° NE visible
15 Jul 4.4 17:13:32 10° SE 17:17:14 18° E 17:20:57 10° ENE visible
15 Jul 2.5 18:55:10 10° SW 19:00:42 53° WNW 19:06:17 10° NNE visible
16 Jul 4.4 16:58:06 10° SE 17:01:23 17° E 17:04:49 10° ENE visible
16 Jul 2.4 18:39:52 13° SW 18:44:47 57° WNW 18:50:24 10° NNE visible
17 Jul 4.4 16:43:00 12° SE 16:45:31 15° E 16:48:40 10° ENE visible
17 Jul 2.3 18:24:47 19° SW 18:28:53 61° WNW 18:34:31 10° NNE visible
18 Jul 4.4 16:27:51 12° ESE 16:29:40 14° E 16:32:28 10° ENE visible
18 Jul 2.3 18:09:37 25° SW 18:12:58 66° WNW 18:18:39 10° NNE visible
19 Jul 4.5 16:12:40 12° ESE 16:13:48 13° E 16:16:12 10° ENE visible
19 Jul 2.2 17:54:26 33° SW 17:57:03 71° WNW 18:02:45 10° NNE visible
20 Jul 4.6 15:57:26 11° ESE 15:57:57 12° E 15:59:48 10° ENE visible
20 Jul 2.1 17:39:12 43° SW 17:41:09 77° WNW 17:46:51 10° NNE visible
21 Jul 4.7 15:42:09 10° E 15:42:09 10° E 15:43:09 10° E visible
21 Jul 2.1 17:23:55 55° SSW 17:25:14 82° WNW 17:30:57 10° NNE visible
21 Jul 4.3 19:08:30 10° WNW 19:10:05 11° NW 19:11:39 10° NW visible
